START_TIME,STEP,MOV.,M29,t_acc.,H22,t_acc.,H26,t_acc.,H30,t_acc.
1979-07-27 09:00:31.170 ,0,0,0.,24.0,0.,24.0,0.,24.0,0.,24.0
1979-07-27 09:00:55.170 ,0,1,0.,24.0,0.,24.0,0.,24.0,0.,24.0
1979-07-27 09:01:19.170 ,0,0,1.,24.0,0.,24.0,0.,24.0,0.,24.0
1979-07-27 09:01:43.170 ,1,1,0.,24.0,0.,24.0,0.,24.0,0.,24.0
1979-07-27 09:02:07.170 ,1,0,0.,24.0,0.,24.0,0.,24.0,0.,24.0
1979-07-27 09:02:31.170 ,2,1,0.,24.0,0.,24.0,0.,24.0,0.,24.0
1979-07-27 09:02:55.170 ,2,0,0.,24.0,0.,24.0,0.,24.0,0.,24.0
1979-07-27 09:03:19.170 ,3,1,0.,24.0,0.,24.0,0.,24.0,0.,24.0
1979-07-27 09:03:43.170 ,3,0,0.,24.0,0.,24.0,0.,24.0,0.,24.0
1979-07-27 09:04:07.170 ,4,1,0.,24.0,0.,24.0,0.,24.0,0.,24.0
1979-07-27 09:04:31.170 ,4,0,0.,24.0,0.,24.0,0.,24.0,0.,24.0
1979-07-27 09:04:55.170 ,5,1,0.,24.0,0.,24.0,0.,24.0,0.,24.0
1979-07-27 09:05:19.170 ,5,0,0.,24.0,0.,24.0,0.,24.0,0.,24.0
1979-07-27 09:05:43.170 ,6,1,0.,24.0,0.,24.0,0.,24.0,0.,24.0
1979-07-27 09:06:07.170 ,6,0,0.,24.0,0.,24.0,0.,24.0,0.,24.0
1979-07-27 09:06:31.170 ,7,0,0.,24.0,0.,24.0,0.,24.0,0.,24.0
1979-07-27 09:06:55.170 ,7,0,,0,,0,,0,,0
1979-07-27 09:07:19.170 ,5,1,0.,24.0,0.,24.0,0.,24.0,0.,24.0
1979-07-27 09:07:43.170 ,1,1,0.,24.0,0.,24.0,0.,24.0,0.,24.0
1979-07-27 09:08:07.170 ,2,1,0.,24.0,0.,24.0,0.,24.0,0.,24.0
1979-07-27 09:08:31.170 ,6,1,0.,24.0,0.,24.0,0.,24.0,0.,24.0
1979-07-27 09:08:55.170 ,5,1,0.,24.0,0.,24.0,0.,24.0,0.,24.0
1979-07-27 09:09:19.170 ,1,1,0.,24.0,0.,24.0,0.,24.0,0.,24.0
1979-07-27 09:09:43.170 ,2,1,0.,24.0,0.,24.0,0.,24.0,0.,24.0
1979-07-27 09:10:07.170 ,6,1,0.,24.0,0.,24.0,0.,24.0,0.,24.0
1979-07-27 09:10:31.170 ,5,1,0.,24.0,0.,24.0,0.,24.0,0.,24.0
1979-07-27 09:10:55.170 ,1,1,0.,24.0,0.,24.0,0.,24.0,0.,24.0
1979-07-27 09:11:19.170 ,2,1,0.,24.0,0.,24.0,0.,24.0,0.,24.0
1979-07-27 09:11:43.170 ,6,1,0.,24.0,0.,24.0,0.,24.0,0.,24.0
1979-07-27 09:12:07.170 ,5,1,0.,24.0,0.,24.0,0.,24.0,0.,24.0
1979-07-27 09:12:31.170 ,1,1,0.,24.0,0.,24.0,0.,24.0,0.,24.0
1979-07-27 09:12:55.170 ,2,1,0.,24.0,0.,24.0,0.,24.0,0.,24.0
1979-07-27 09:13:19.170 ,6,1,0.,24.0,0.,24.0,0.,24.0,0.,24.0
1979-07-27 09:13:43.170 ,5,1,0.,24.0,0.,24.0,0.,24.0,0.,24.0
1979-07-27 09:14:07.170 ,1,1,0.,24.0,0.,24.0,0.,24.0,0.,24.0
1979-07-27 09:14:31.170 ,2,1,0.,24.0,0.,24.0,0.,24.0,0.,24.0
1979-07-27 09:14:55.170 ,6,1,0.,24.0,0.,24.0,0.,24.0,0.,24.0
1979-07-27 09:15:19.170 ,5,1,0.,24.0,0.,24.0,0.,24.0,0.,24.0
1979-07-27 09:15:43.170 ,1,1,0.,24.0,0.,24.0,0.,24.0,0.,24.0
1979-07-27 09:16:07.170 ,2,1,1.,24.0,0.,24.0,0.,24.0,0.,24.0
1979-07-27 09:16:31.170 ,6,1,0.,24.0,0.,24.0,0.,24.0,0.,24.0
1979-07-27 09:16:55.170 ,5,1,0.,24.0,0.,24.0,0.,24.0,0.,24.0
1979-07-27 09:17:19.170 ,1,1,0.,24.0,0.,24.0,0.,24.0,0.,24.0
1979-07-27 09:17:43.170 ,0,0,0.,24.0,0.,24.0,0.,24.0,0.,24.0
1979-07-27 09:18:07.170 ,0,0,0.,24.0,0.,24.0,0.,24.0,0.,24.0
1979-07-27 09:18:31.170 ,5,1,0.,24.0,0.,24.0,0.,24.0,0.,24.0
1979-07-27 09:18:55.170 ,5,0,0.,24.0,0.,24.0,0.,24.0,0.,24.0
1979-07-27 09:19:19.170 ,4,1,0.,24.0,0.,24.0,0.,24.0,0.,24.0
1979-07-27 09:19:43.170 ,4,0,0.,24.0,0.,24.0,0.,24.0,0.,24.0
1979-07-27 09:20:07.170 ,3,1,0.,24.0,0.,24.0,0.,24.0,0.,24.0
1979-07-27 09:20:31.170 ,3,0,0.,24.0,0.,24.0,0.,24.0,0.,24.0
1979-07-27 09:20:55.170 ,2,1,0.,24.0,0.,24.0,0.,24.0,0.,24.0
1979-07-27 09:21:19.170 ,2,0,0.,24.0,0.,24.0,0.,24.0,0.,24.0
1979-07-27 09:21:43.170 ,1,1,0.,24.0,0.,24.0,0.,24.0,0.,24.0
1979-07-27 09:22:07.170 ,1,0,0.,24.0,0.,24.0,0.,24.0,0.,24.0
1979-07-27 09:22:31.170 ,0,1,0.,24.0,0.,24.0,0.,24.0,0.,24.0
1979-07-27 09:22:55.170 ,0,0,0.,24.0,0.,24.0,0.,24.0,0.,24.0
1979-07-27 09:23:19.170 ,0,1,0.,24.0,0.,24.0,0.,24.0,0.,24.0
1979-07-27 09:23:43.170 ,0,0,0.,24.0,0.,24.0,0.,24.0,0.,24.0
1979-07-27 09:24:07.170 ,1,1,0.,24.0,0.,24.0,0.,24.0,0.,24.0
1979-07-27 09:24:31.170 ,1,0,0.,24.0,0.,24.0,0.,24.0,0.,24.0
1979-07-27 09:24:55.170 ,2,1,0.,24.0,0.,24.0,0.,24.0,0.,24.0
1979-07-27 09:25:19.170 ,2,0,0.,24.0,0.,24.0,0.,24.0,0.,24.0
1979-07-27 09:25:43.170 ,3,1,0.,24.0,0.,24.0,0.,24.0,0.,24.0
1979-07-27 09:26:07.170 ,3,0,0.,24.0,0.,24.0,0.,24.0,0.,24.0
1979-07-27 09:26:31.170 ,4,1,1.,24.0,0.,24.0,0.,24.0,0.,24.0
1979-07-27 09:26:55.170 ,4,0,0.,24.0,0.,24.0,0.,24.0,0.,24.0
1979-07-27 09:27:19.170 ,5,1,0.,24.0,0.,24.0,0.,24.0,0.,24.0
1979-07-27 09:27:43.170 ,5,0,0.,24.0,0.,24.0,0.,24.0,0.,24.0
1979-07-27 09:28:07.170 ,6,1,0.,24.0,0.,24.0,0.,24.0,0.,24.0
1979-07-27 09:28:31.170 ,6,0,0.,24.0,0.,24.0,0.,24.0,0.,24.0
1979-07-27 09:28:55.170 ,7,1,0.,24.0,0.,24.0,0.,24.0,0.,24.0
1979-07-27 09:29:19.170 ,7,0,0.,24.0,0.,24.0,0.,24.0,0.,24.0
1979-07-27 09:29:43.170 ,7,1,0.,24.0,0.,24.0,0.,24.0,0.,24.0
1979-07-27 09:30:07.170 ,7,0,0.,24.0,0.,24.0,0.,24.0,0.,24.0
1979-07-27 09:30:31.170 ,6,1,0.,24.0,0.,24.0,0.,24.0,0.,24.0
1979-07-27 09:30:55.170 ,6,0,0.,24.0,0.,24.0,0.,24.0,0.,24.0
1979-07-27 09:31:19.170 ,5,1,0.,24.0,0.,24.0,0.,24.0,0.,24.0
1979-07-27 09:31:43.170 ,5,0,0.,24.0,0.,24.0,0.,24.0,0.,24.0
1979-07-27 09:32:07.170 ,4,1,0.,24.0,0.,24.0,0.,24.0,0.,24.0
1979-07-27 09:32:31.170 ,4,0,0.,24.0,0.,24.0,0.,24.0,0.,24.0
1979-07-27 09:32:55.170 ,3,1,0.,24.0,0.,24.0,0.,24.0,0.,24.0
1979-07-27 09:33:19.170 ,3,0,0.,24.0,0.,24.0,0.,24.0,0.,24.0
1979-07-27 09:33:43.170 ,2,1,0.,24.0,0.,24.0,0.,24.0,0.,24.0
1979-07-27 09:34:07.170 ,2,0,0.,24.0,0.,24.0,0.,24.0,0.,24.0
1979-07-27 09:34:31.170 ,1,1,0.,24.0,0.,24.0,0.,24.0,0.,24.0
1979-07-27 09:34:55.170 ,1,0,0.,24.0,0.,24.0,0.,24.0,0.,24.0
1979-07-27 09:35:19.170 ,0,1,0.,24.0,0.,24.0,0.,24.0,0.,24.0
1979-07-27 09:35:43.170 ,0,0,0.,24.0,0.,24.0,0.,24.0,0.,24.0
1979-07-27 09:36:07.170 ,0,1,0.,24.0,0.,24.0,0.,24.0,0.,24.0
1979-07-27 09:36:31.170 ,0,0,0.,24.0,0.,24.0,0.,24.0,0.,24.0
1979-07-27 09:36:55.170 ,1,1,0.,24.0,0.,24.0,0.,24.0,0.,24.0
1979-07-27 09:37:19.170 ,1,0,0.,24.0,0.,24.0,0.,24.0,0.,24.0
1979-07-27 09:37:43.170 ,2,1,1.,24.0,0.,24.0,0.,24.0,0.,24.0
1979-07-27 09:38:07.170 ,2,0,0.,24.0,0.,24.0,0.,24.0,0.,24.0
1979-07-27 09:38:31.170 ,3,1,0.,24.0,0.,24.0,0.,24.0,0.,24.0
1979-07-27 09:38:55.170 ,3,0,0.,24.0,0.,24.0,0.,24.0,0.,24.0
1979-07-27 09:39:19.170 ,4,1,0.,24.0,0.,24.0,0.,24.0,0.,24.0
1979-07-27 09:39:43.170 ,4,0,0.,24.0,0.,24.0,0.,24.0,0.,24.0
1979-07-27 09:40:07.170 ,5,1,0.,24.0,0.,24.0,0.,24.0,0.,24.0
1979-07-27 09:40:31.170 ,5,0,0.,24.0,0.,24.0,0.,24.0,0.,24.0
1979-07-27 09:40:55.170 ,6,1,0.,24.0,0.,24.0,0.,24.0,0.,24.0
1979-07-27 09:41:19.170 ,6,0,0.,24.0,0.,24.0,0.,24.0,0.,24.0
1979-07-27 09:41:43.170 ,7,1,0.,24.0,0.,24.0,0.,24.0,0.,24.0
1979-07-27 09:42:07.170 ,7,0,0.,24.0,0.,24.0,0.,24.0,0.,24.0
1979-07-27 09:42:31.170 ,7,1,0.,24.0,0.,24.0,0.,24.0,0.,24.0
1979-07-27 09:42:55.170 ,7,0,0.,24.0,0.,24.0,0.,24.0,0.,24.0
1979-07-27 09:43:19.170 ,6,1,0.,24.0,0.,24.0,0.,24.0,0.,24.0
1979-07-27 09:43:43.170 ,6,0,0.,24.0,0.,24.0,0.,24.0,0.,24.0
1979-07-27 09:44:07.170 ,5,1,0.,24.0,0.,24.0,0.,24.0,0.,24.0
1979-07-27 09:44:31.170 ,5,0,0.,24.0,0.,24.0,0.,24.0,0.,24.0
1979-07-27 09:44:55.170 ,4,1,0.,24.0,0.,24.0,0.,24.0,0.,24.0
1979-07-27 09:45:19.170 ,4,0,0.,24.0,0.,24.0,0.,24.0,0.,24.0
1979-07-27 09:45:43.170 ,3,1,0.,24.0,0.,24.0,0.,24.0,0.,24.0
1979-07-27 09:46:07.170 ,3,0,0.,24.0,0.,24.0,0.,24.0,0.,24.0
1979-07-27 09:46:31.170 ,2,1,0.,24.0,0.,24.0,0.,24.0,0.,24.0
1979-07-27 09:46:55.170 ,2,0,0.,24.0,0.,24.0,0.,24.0,0.,24.0
1979-07-27 09:47:19.170 ,1,1,0.,24.0,0.,24.0,0.,24.0,0.,24.0
1979-07-27 09:47:43.170 ,1,0,0.,24.0,0.,24.0,0.,24.0,0.,24.0
1979-07-27 09:48:07.170 ,0,1,0.,24.0,0.,24.0,0.,24.0,0.,24.0
1979-07-27 09:48:31.170 ,0,0,0.,24.0,0.,24.0,0.,24.0,0.,24.0
1979-07-27 09:48:55.170 ,0,1,0.,24.0,0.,24.0,0.,24.0,0.,24.0
1979-07-27 09:49:19.170 ,0,0,1.,24.0,0.,24.0,0.,24.0,0.,24.0
1979-07-27 09:49:43.170 ,1,1,0.,24.0,0.,24.0,0.,24.0,0.,24.0
1979-07-27 09:50:07.170 ,1,0,0.,24.0,0.,24.0,0.,24.0,0.,24.0
1979-07-27 09:50:31.170 ,2,1,0.,24.0,0.,24.0,0.,24.0,0.,24.0
1979-07-27 09:50:55.170 ,2,0,0.,24.0,0.,24.0,0.,24.0,0.,24.0
1979-07-27 09:51:19.170 ,3,1,0.,24.0,0.,24.0,0.,24.0,0.,24.0
1979-07-27 09:51:43.170 ,3,0,0.,24.0,0.,24.0,0.,24.0,0.,24.0
1979-07-27 09:52:07.170 ,4,1,0.,24.0,0.,24.0,0.,24.0,0.,24.0
1979-07-27 09:52:31.170 ,4,0,0.,24.0,0.,24.0,0.,24.0,0.,24.0
1979-07-27 09:52:55.160 ,5,1,0.,24.0,0.,24.0,0.,24.0,0.,24.0
1979-07-27 09:53:19.160 ,5,0,1.,24.0,0.,24.0,0.,24.0,0.,24.0
1979-07-27 09:53:43.160 ,6,1,0.,24.0,0.,24.0,0.,24.0,0.,24.0
1979-07-27 09:54:07.160 ,6,0,0.,24.0,0.,24.0,0.,24.0,0.,24.0
1979-07-27 09:54:31.160 ,7,0,0.,24.0,0.,24.0,0.,24.0,0.,24.0
1979-07-27 09:54:55.160 ,7,0,0.,24.0,0.,24.0,0.,24.0,0.,24.0
1979-07-27 09:55:19.160 ,5,1,0.,24.0,0.,24.0,0.,24.0,0.,24.0
1979-07-27 09:55:43.160 ,1,1,0.,24.0,0.,24.0,0.,24.0,0.,24.0
1979-07-27 09:56:07.160 ,2,1,0.,24.0,0.,24.0,0.,24.0,0.,24.0
1979-07-27 09:56:31.160 ,6,1,0.,24.0,0.,24.0,0.,24.0,0.,24.0
1979-07-27 09:56:55.160 ,5,1,0.,24.0,0.,24.0,0.,24.0,0.,24.0
1979-07-27 09:57:19.160 ,1,1,0.,24.0,0.,24.0,0.,24.0,0.,24.0
1979-07-27 09:57:43.160 ,2,1,0.,24.0,0.,24.0,0.,24.0,0.,24.0
1979-07-27 09:58:07.160 ,6,1,0.,24.0,0.,24.0,0.,24.0,0.,24.0
1979-07-27 09:58:31.160 ,5,1,0.,24.0,0.,24.0,0.,24.0,0.,24.0
1979-07-27 09:58:55.160 ,1,1,0.,24.0,0.,24.0,0.,24.0,0.,24.0
1979-07-27 09:59:19.160 ,2,1,1.,24.0,0.,24.0,0.,24.0,0.,24.0
1979-07-27 09:59:43.160 ,6,1,0.,24.0,0.,24.0,0.,24.0,0.,24.0
1979-07-27 10:00:07.160 ,5,1,0.,24.0,0.,24.0,0.,24.0,0.,24.0
1979-07-27 10:00:31.170 ,1,1,0.,24.0,0.,24.0,0.,24.0,0.,24.0
1979-07-27 10:00:55.170 ,2,1,0.,24.0,0.,24.0,0.,24.0,0.,24.0
1979-07-27 10:01:19.170 ,6,1,0.,24.0,0.,24.0,0.,24.0,0.,24.0
1979-07-27 10:01:43.170 ,5,1,0.,24.0,0.,24.0,0.,24.0,0.,24.0
1979-07-27 10:02:07.170 ,1,1,0.,24.0,0.,24.0,0.,24.0,0.,24.0
1979-07-27 10:02:31.170 ,2,1,0.,24.0,0.,24.0,0.,24.0,0.,24.0
1979-07-27 10:02:55.170 ,6,1,0.,24.0,0.,24.0,0.,24.0,0.,24.0
1979-07-27 10:03:19.170 ,5,1,0.,24.0,0.,24.0,0.,24.0,0.,24.0
1979-07-27 10:03:43.170 ,1,1,0.,24.0,0.,24.0,0.,24.0,0.,24.0
1979-07-27 10:04:07.170 ,2,1,0.,24.0,0.,24.0,0.,24.0,0.,24.0
1979-07-27 10:04:31.170 ,6,1,0.,24.0,0.,24.0,0.,24.0,0.,24.0
1979-07-27 10:04:55.170 ,5,1,0.,24.0,0.,24.0,0.,24.0,0.,24.0
1979-07-27 10:05:19.170 ,1,1,0.,24.0,0.,24.0,0.,24.0,0.,24.0
1979-07-27 10:05:43.170 ,0,0,0.,24.0,0.,24.0,0.,24.0,0.,24.0
1979-07-27 10:06:07.170 ,0,0,0.,24.0,0.,24.0,0.,24.0,0.,24.0
1979-07-27 10:06:31.170 ,5,1,0.,24.0,0.,24.0,0.,24.0,0.,24.0
1979-07-27 10:06:55.170 ,5,0,0.,24.0,0.,24.0,0.,24.0,0.,24.0
1979-07-27 10:07:19.170 ,4,1,0.,24.0,0.,24.0,0.,24.0,0.,24.0
1979-07-27 10:07:43.170 ,4,0,0.,24.0,0.,24.0,0.,24.0,0.,24.0
1979-07-27 10:08:07.170 ,3,1,0.,24.0,0.,24.0,0.,24.0,0.,24.0
1979-07-27 10:08:31.170 ,3,0,0.,24.0,0.,24.0,0.,24.0,0.,24.0
1979-07-27 10:08:55.170 ,2,1,0.,24.0,0.,24.0,0.,24.0,0.,24.0
1979-07-27 10:09:19.170 ,2,0,0.,24.0,0.,24.0,0.,24.0,0.,24.0
1979-07-27 10:09:43.170 ,1,1,0.,24.0,0.,24.0,0.,24.0,0.,24.0
1979-07-27 10:10:07.170 ,1,0,0.,24.0,0.,24.0,0.,24.0,0.,24.0
1979-07-27 10:10:31.170 ,0,1,0.,24.0,0.,24.0,0.,24.0,0.,24.0
1979-07-27 10:10:55.170 ,0,0,0.,24.0,0.,24.0,0.,24.0,0.,24.0
1979-07-27 10:11:19.170 ,0,1,0.,24.0,0.,24.0,0.,24.0,0.,24.0
1979-07-27 10:11:43.170 ,0,0,0.,24.0,0.,24.0,0.,24.0,0.,24.0
1979-07-27 10:12:07.160 ,1,1,1.,24.0,0.,24.0,0.,24.0,0.,24.0
1979-07-27 10:12:31.160 ,1,0,0.,24.0,0.,24.0,0.,24.0,0.,24.0
1979-07-27 10:12:55.160 ,2,1,0.,24.0,0.,24.0,0.,24.0,0.,24.0
1979-07-27 10:13:19.160 ,2,0,0.,24.0,0.,24.0,0.,24.0,0.,24.0
1979-07-27 10:13:43.160 ,3,1,0.,24.0,0.,24.0,0.,24.0,0.,24.0
1979-07-27 10:14:07.160 ,3,0,0.,24.0,0.,24.0,0.,24.0,0.,24.0
1979-07-27 10:14:31.160 ,4,1,0.,24.0,0.,24.0,0.,24.0,0.,24.0
1979-07-27 10:14:55.160 ,4,0,0.,24.0,0.,24.0,0.,24.0,0.,24.0
1979-07-27 10:15:19.160 ,5,1,0.,24.0,0.,24.0,0.,24.0,0.,24.0
1979-07-27 10:15:43.160 ,5,0,0.,24.0,0.,24.0,0.,24.0,0.,24.0
1979-07-27 10:16:07.160 ,6,1,0.,24.0,0.,24.0,0.,24.0,0.,24.0
1979-07-27 10:16:31.160 ,6,0,0.,24.0,0.,24.0,0.,24.0,0.,24.0
1979-07-27 10:16:55.160 ,7,1,0.,24.0,0.,24.0,0.,24.0,0.,24.0
1979-07-27 10:17:19.160 ,7,0,0.,24.0,0.,24.0,0.,24.0,0.,24.0
1979-07-27 10:17:43.160 ,7,1,0.,24.0,0.,24.0,0.,24.0,0.,24.0
1979-07-27 10:18:07.160 ,7,0,0.,24.0,0.,24.0,0.,24.0,0.,24.0
1979-07-27 10:18:31.160 ,6,1,0.,24.0,0.,24.0,0.,24.0,0.,24.0
1979-07-27 10:18:55.160 ,6,0,0.,24.0,0.,24.0,0.,24.0,0.,24.0
1979-07-27 10:19:19.160 ,5,1,0.,24.0,0.,24.0,0.,24.0,0.,24.0
1979-07-27 10:19:43.160 ,5,0,0.,24.0,0.,24.0,0.,24.0,0.,24.0
1979-07-27 10:20:07.160 ,4,1,0.,24.0,0.,24.0,0.,24.0,0.,24.0
1979-07-27 10:20:31.160 ,4,0,0.,24.0,0.,24.0,0.,24.0,0.,24.0
1979-07-27 10:20:55.160 ,3,1,0.,24.0,0.,24.0,0.,24.0,0.,24.0
1979-07-27 10:21:19.160 ,3,0,0.,24.0,0.,24.0,0.,24.0,0.,24.0
1979-07-27 10:21:43.160 ,2,1,0.,24.0,0.,24.0,0.,24.0,0.,24.0
1979-07-27 10:22:07.160 ,2,0,0.,24.0,0.,24.0,0.,24.0,0.,24.0
1979-07-27 10:22:31.160 ,1,1,0.,24.0,0.,24.0,0.,24.0,0.,24.0
1979-07-27 10:22:55.160 ,1,0,0.,24.0,0.,24.0,0.,24.0,0.,24.0
1979-07-27 10:23:19.160 ,0,1,0.,24.0,0.,24.0,0.,24.0,0.,24.0
1979-07-27 10:23:43.160 ,0,0,0.,24.0,0.,24.0,0.,24.0,0.,24.0
1979-07-27 10:24:07.160 ,0,1,0.,24.0,0.,24.0,0.,24.0,0.,24.0
1979-07-27 10:24:31.160 ,0,0,0.,24.0,0.,24.0,0.,24.0,0.,24.0
1979-07-27 10:24:55.160 ,1,1,0.,24.0,0.,24.0,0.,24.0,0.,24.0
1979-07-27 10:25:19.160 ,1,0,0.,24.0,0.,24.0,0.,24.0,0.,24.0
1979-07-27 10:25:43.160 ,2,1,0.,24.0,0.,24.0,0.,24.0,0.,24.0
1979-07-27 10:26:07.160 ,2,0,0.,24.0,0.,24.0,0.,24.0,0.,24.0
1979-07-27 10:26:31.160 ,3,1,0.,24.0,0.,24.0,0.,24.0,0.,24.0
1979-07-27 10:26:55.160 ,3,0,0.,24.0,0.,24.0,0.,24.0,0.,24.0
1979-07-27 10:27:19.160 ,4,1,0.,24.0,0.,24.0,0.,24.0,0.,24.0
1979-07-27 10:27:43.160 ,4,0,0.,24.0,0.,24.0,0.,24.0,0.,24.0
1979-07-27 10:28:07.160 ,5,1,0.,24.0,0.,24.0,0.,24.0,0.,24.0
1979-07-27 10:28:31.160 ,5,0,0.,24.0,0.,24.0,0.,24.0,0.,24.0
1979-07-27 10:28:55.160 ,6,1,0.,24.0,0.,24.0,0.,24.0,0.,24.0
1979-07-27 10:29:19.160 ,6,0,0.,24.0,0.,24.0,0.,24.0,0.,24.0
1979-07-27 10:29:43.160 ,7,1,0.,24.0,0.,24.0,0.,24.0,0.,24.0
1979-07-27 10:30:07.160 ,7,0,0.,24.0,0.,24.0,0.,24.0,0.,24.0
1979-07-27 10:30:31.160 ,7,1,0.,24.0,0.,24.0,0.,24.0,0.,24.0
1979-07-27 10:30:55.160 ,7,0,0.,24.0,0.,24.0,0.,24.0,0.,24.0
1979-07-27 10:31:19.160 ,6,1,0.,24.0,0.,24.0,0.,24.0,0.,24.0
1979-07-27 10:31:43.160 ,6,0,0.,24.0,0.,24.0,0.,24.0,0.,24.0
1979-07-27 10:32:07.160 ,5,1,0.,24.0,0.,24.0,0.,24.0,0.,24.0
1979-07-27 10:32:31.160 ,5,0,0.,24.0,0.,24.0,0.,24.0,0.,24.0
1979-07-27 10:32:55.160 ,4,1,0.,24.0,0.,24.0,0.,24.0,0.,24.0
1979-07-27 10:33:19.160 ,4,0,0.,24.0,0.,24.0,0.,24.0,0.,24.0
1979-07-27 10:33:43.160 ,3,1,0.,24.0,0.,24.0,0.,24.0,0.,24.0
1979-07-27 10:34:07.160 ,3,0,0.,24.0,0.,24.0,0.,24.0,0.,24.0
1979-07-27 10:34:31.160 ,2,1,0.,24.0,0.,24.0,0.,24.0,0.,24.0
1979-07-27 10:34:55.160 ,2,0,0.,24.0,0.,24.0,0.,24.0,0.,24.0
1979-07-27 10:35:19.160 ,1,1,0.,24.0,0.,24.0,0.,24.0,0.,24.0
1979-07-27 10:35:43.160 ,1,0,0.,24.0,0.,24.0,0.,24.0,0.,24.0
1979-07-27 10:36:07.160 ,0,1,0.,24.0,0.,24.0,0.,24.0,0.,24.0
1979-07-27 10:36:31.160 ,0,0,0.,24.0,0.,24.0,0.,24.0,0.,24.0
1979-07-27 10:36:55.160 ,0,1,0.,24.0,0.,24.0,0.,24.0,0.,24.0
1979-07-27 10:37:19.160 ,0,0,1.,24.0,0.,24.0,0.,24.0,0.,24.0
1979-07-27 10:37:43.160 ,1,1,0.,24.0,0.,24.0,0.,24.0,0.,24.0
1979-07-27 10:38:07.160 ,1,0,0.,24.0,0.,24.0,0.,24.0,0.,24.0
1979-07-27 10:38:31.160 ,2,1,0.,24.0,0.,24.0,0.,24.0,0.,24.0
1979-07-27 10:38:55.160 ,2,0,0.,24.0,0.,24.0,0.,24.0,0.,24.0
1979-07-27 10:39:19.160 ,3,1,0.,24.0,0.,24.0,0.,24.0,0.,24.0
1979-07-27 10:39:43.160 ,3,0,0.,24.0,0.,24.0,0.,24.0,0.,24.0
1979-07-27 10:40:07.160 ,4,1,0.,24.0,0.,24.0,0.,24.0,0.,24.0
1979-07-27 10:40:31.160 ,4,0,0.,24.0,0.,24.0,0.,24.0,0.,24.0
1979-07-27 10:40:55.160 ,5,1,0.,24.0,0.,24.0,0.,24.0,0.,24.0
1979-07-27 10:41:19.160 ,5,0,0.,24.0,0.,24.0,0.,24.0,0.,24.0
1979-07-27 10:41:43.160 ,6,1,0.,24.0,0.,24.0,0.,24.0,0.,24.0
1979-07-27 10:42:07.160 ,6,0,0.,24.0,0.,24.0,0.,24.0,0.,24.0
1979-07-27 10:42:31.160 ,7,0,0.,24.0,0.,24.0,0.,24.0,0.,24.0
1979-07-27 10:42:55.160 ,7,0,0.,24.0,0.,24.0,0.,24.0,0.,24.0
1979-07-27 10:43:19.160 ,5,1,0.,24.0,0.,24.0,0.,24.0,0.,24.0
1979-07-27 10:43:43.160 ,1,1,0.,24.0,0.,24.0,0.,24.0,0.,24.0
1979-07-27 10:44:07.160 ,2,1,1.,24.0,0.,24.0,0.,24.0,0.,24.0
1979-07-27 10:44:31.160 ,6,1,0.,24.0,0.,24.0,0.,24.0,0.,24.0
1979-07-27 10:44:55.160 ,5,1,0.,24.0,0.,24.0,0.,24.0,0.,24.0
1979-07-27 10:45:19.160 ,1,1,0.,24.0,0.,24.0,0.,24.0,0.,24.0
1979-07-27 10:45:43.160 ,2,1,0.,24.0,0.,24.0,0.,24.0,0.,24.0
1979-07-27 10:46:07.160 ,6,1,0.,24.0,0.,24.0,0.,24.0,0.,24.0
1979-07-27 10:46:31.160 ,5,1,0.,24.0,0.,24.0,0.,24.0,0.,24.0
1979-07-27 10:46:55.160 ,1,1,0.,24.0,0.,24.0,0.,24.0,0.,24.0
1979-07-27 10:47:19.160 ,2,1,0.,24.0,0.,24.0,0.,24.0,0.,24.0
1979-07-27 10:47:43.160 ,6,1,0.,24.0,0.,24.0,0.,24.0,0.,24.0
1979-07-27 10:48:07.160 ,5,1,0.,24.0,0.,24.0,0.,24.0,0.,24.0
1979-07-27 10:48:31.160 ,1,1,0.,24.0,0.,24.0,0.,24.0,0.,24.0
1979-07-27 10:48:55.160 ,2,1,0.,24.0,0.,24.0,0.,24.0,0.,24.0
1979-07-27 10:49:19.160 ,6,1,0.,24.0,0.,24.0,0.,24.0,0.,24.0
1979-07-27 10:49:43.160 ,5,1,0.,24.0,0.,24.0,0.,24.0,0.,24.0
1979-07-27 10:50:07.160 ,1,1,0.,24.0,0.,24.0,0.,24.0,0.,24.0
1979-07-27 10:50:31.160 ,2,1,0.,24.0,0.,24.0,0.,24.0,0.,24.0
1979-07-27 10:50:55.160 ,6,1,0.,24.0,0.,24.0,0.,24.0,0.,24.0
1979-07-27 10:51:19.160 ,5,1,0.,24.0,0.,24.0,0.,24.0,0.,24.0
1979-07-27 10:51:43.160 ,1,1,0.,24.0,0.,24.0,0.,24.0,0.,24.0
1979-07-27 10:52:07.160 ,2,1,0.,24.0,0.,24.0,0.,24.0,0.,24.0
1979-07-27 10:52:31.160 ,6,1,0.,24.0,0.,24.0,0.,24.0,0.,24.0
1979-07-27 10:52:55.160 ,5,1,0.,24.0,0.,24.0,0.,24.0,0.,24.0
1979-07-27 10:53:19.160 ,1,1,0.,24.0,0.,24.0,0.,24.0,0.,24.0
1979-07-27 10:53:43.160 ,0,0,0.,24.0,0.,24.0,0.,24.0,0.,24.0
1979-07-27 10:54:07.160 ,0,0,0.,24.0,0.,24.0,0.,24.0,0.,24.0
1979-07-27 10:54:31.160 ,5,1,0.,24.0,0.,24.0,0.,24.0,0.,24.0
1979-07-27 10:54:55.160 ,5,0,0.,24.0,0.,24.0,0.,24.0,0.,24.0
1979-07-27 10:55:19.160 ,4,1,0.,24.0,0.,24.0,0.,24.0,0.,24.0
1979-07-27 10:55:43.160 ,4,0,0.,24.0,0.,24.0,0.,24.0,0.,24.0
1979-07-27 10:56:07.160 ,3,1,0.,24.0,0.,24.0,0.,24.0,0.,24.0
1979-07-27 10:56:31.160 ,3,0,0.,24.0,0.,24.0,0.,24.0,0.,24.0
1979-07-27 10:56:55.160 ,2,1,0.,24.0,0.,24.0,0.,24.0,0.,24.0
1979-07-27 10:57:19.160 ,2,0,0.,24.0,0.,24.0,0.,24.0,0.,24.0
1979-07-27 10:57:43.160 ,1,1,0.,24.0,0.,24.0,0.,24.0,0.,24.0
1979-07-27 10:58:07.160 ,1,0,0.,24.0,0.,24.0,0.,24.0,0.,24.0
1979-07-27 10:58:31.160 ,0,1,0.,24.0,0.,24.0,0.,24.0,0.,24.0
1979-07-27 10:58:55.160 ,0,0,0.,24.0,0.,24.0,0.,24.0,0.,24.0
1979-07-27 10:59:19.160 ,0,1,1.,24.0,0.,24.0,0.,24.0,0.,24.0
1979-07-27 10:59:43.160 ,0,0,0.,24.0,0.,24.0,0.,24.0,0.,24.0
1979-07-27 11:00:07.160 ,1,1,0.,24.0,0.,24.0,0.,24.0,0.,24.0
1979-07-27 11:00:31.160 ,1,0,0.,24.0,0.,24.0,0.,24.0,0.,24.0
1979-07-27 11:00:55.160 ,2,1,0.,24.0,0.,24.0,0.,24.0,0.,24.0
1979-07-27 11:01:19.160 ,2,0,0.,24.0,0.,24.0,0.,24.0,0.,24.0
1979-07-27 11:01:43.160 ,3,1,0.,24.0,0.,24.0,0.,24.0,0.,24.0
1979-07-27 11:02:07.160 ,3,0,1.,24.0,0.,24.0,0.,24.0,0.,24.0
1979-07-27 11:02:31.160 ,4,1,1.,24.0,0.,24.0,0.,24.0,0.,24.0
1979-07-27 11:02:55.160 ,0,0,0.,24.0,0.,24.0,0.,24.0,0.,24.0
1979-07-27 11:03:22.160 ,0,0,0.,24.0,0.,24.0,0.,24.0,0.,24.0
1979-07-27 11:03:43.160 ,0,0,1.,24.0,0.,24.0,0.,24.0,0.,24.0
1979-07-27 11:04:07.160 ,6,1,0.,24.0,0.,24.0,0.,24.0,0.,24.0
1979-07-27 11:04:31.160 ,6,0,0.,24.0,0.,24.0,0.,24.0,0.,24.0
1979-07-27 11:04:55.160 ,7,1,0.,24.0,0.,24.0,0.,24.0,0.,24.0
1979-07-27 11:05:19.160 ,7,0,0.,24.0,0.,24.0,0.,24.0,0.,24.0
1979-07-27 11:05:43.160 ,7,1,0.,24.0,0.,24.0,0.,24.0,0.,24.0
1979-07-27 11:06:07.160 ,7,0,0.,24.0,0.,24.0,0.,24.0,0.,24.0
1979-07-27 11:06:31.160 ,6,1,0.,24.0,0.,24.0,0.,24.0,0.,24.0
1979-07-27 11:06:55.160 ,6,0,0.,24.0,0.,24.0,0.,24.0,0.,24.0
1979-07-27 11:07:19.160 ,5,1,0.,24.0,0.,24.0,0.,24.0,0.,24.0
1979-07-27 11:07:43.160 ,5,0,0.,24.0,0.,24.0,0.,24.0,0.,24.0
1979-07-27 11:08:07.160 ,4,1,0.,24.0,0.,24.0,0.,24.0,0.,24.0
1979-07-27 11:08:31.160 ,4,0,0.,24.0,0.,24.0,0.,24.0,0.,24.0
1979-07-27 11:08:55.160 ,3,1,0.,24.0,0.,24.0,0.,24.0,0.,24.0
1979-07-27 11:09:19.160 ,3,0,0.,24.0,0.,24.0,0.,24.0,0.,24.0
1979-07-27 11:09:43.160 ,2,1,0.,24.0,0.,24.0,0.,24.0,0.,24.0
1979-07-27 11:10:07.160 ,2,0,0.,24.0,0.,24.0,0.,24.0,0.,24.0
1979-07-27 11:10:31.160 ,1,1,0.,24.0,0.,24.0,0.,24.0,0.,24.0
1979-07-27 11:10:55.160 ,1,0,0.,24.0,0.,24.0,0.,24.0,0.,24.0
1979-07-27 11:11:19.160 ,0,1,0.,24.0,0.,24.0,0.,24.0,0.,24.0
1979-07-27 11:11:43.160 ,0,0,0.,24.0,0.,24.0,0.,24.0,0.,24.0
1979-07-27 11:12:07.160 ,0,1,0.,24.0,0.,24.0,0.,24.0,0.,24.0
1979-07-27 11:12:31.160 ,0,0,0.,24.0,0.,24.0,0.,24.0,0.,24.0
1979-07-27 11:12:55.160 ,1,1,0.,24.0,0.,24.0,0.,24.0,0.,24.0
1979-07-27 11:13:19.160 ,1,0,0.,24.0,0.,24.0,0.,24.0,0.,24.0
1979-07-27 11:13:43.160 ,2,1,0.,24.0,0.,24.0,0.,24.0,0.,24.0
1979-07-27 11:14:07.160 ,2,0,0.,24.0,0.,24.0,0.,24.0,0.,24.0
1979-07-27 11:14:31.160 ,3,1,0.,24.0,0.,24.0,0.,24.0,0.,24.0
1979-07-27 11:14:55.160 ,3,0,0.,24.0,0.,24.0,0.,24.0,0.,24.0
1979-07-27 11:15:19.160 ,4,1,0.,24.0,0.,24.0,0.,24.0,0.,24.0
1979-07-27 11:15:43.160 ,4,0,0.,24.0,0.,24.0,0.,24.0,0.,24.0
1979-07-27 11:16:07.160 ,5,1,0.,24.0,0.,24.0,0.,24.0,0.,24.0
1979-07-27 11:16:31.160 ,5,0,0.,24.0,0.,24.0,0.,24.0,0.,24.0
1979-07-27 11:16:55.160 ,6,1,0.,24.0,0.,24.0,0.,24.0,0.,24.0
1979-07-27 11:17:19.160 ,6,0,0.,24.0,0.,24.0,0.,24.0,0.,24.0
1979-07-27 11:17:43.160 ,7,1,0.,24.0,0.,24.0,0.,24.0,0.,24.0
1979-07-27 11:18:07.160 ,7,0,0.,24.0,0.,24.0,0.,24.0,0.,24.0
1979-07-27 11:18:31.160 ,7,1,0.,24.0,0.,24.0,0.,24.0,0.,24.0
1979-07-27 11:18:55.160 ,7,0,0.,24.0,0.,24.0,0.,24.0,0.,24.0
1979-07-27 11:19:19.160 ,6,1,0.,24.0,0.,24.0,0.,24.0,0.,24.0
1979-07-27 11:19:43.160 ,6,0,0.,24.0,0.,24.0,0.,24.0,0.,24.0
1979-07-27 11:20:07.160 ,5,1,0.,24.0,0.,24.0,0.,24.0,0.,24.0
1979-07-27 11:20:31.160 ,5,0,0.,24.0,0.,24.0,0.,24.0,0.,24.0
1979-07-27 11:20:55.160 ,4,1,0.,24.0,0.,24.0,0.,24.0,0.,24.0
1979-07-27 11:21:19.160 ,4,0,0.,24.0,0.,24.0,0.,24.0,0.,24.0
1979-07-27 11:21:43.160 ,3,1,0.,24.0,0.,24.0,0.,24.0,0.,24.0
1979-07-27 11:22:07.160 ,3,0,0.,24.0,0.,24.0,0.,24.0,0.,24.0
1979-07-27 11:22:31.160 ,2,1,0.,24.0,0.,24.0,0.,24.0,0.,24.0
1979-07-27 11:22:55.160 ,2,0,0.,24.0,0.,24.0,0.,24.0,0.,24.0
1979-07-27 11:23:19.160 ,1,1,0.,24.0,0.,24.0,0.,24.0,0.,24.0
1979-07-27 11:23:43.160 ,1,0,0.,24.0,0.,24.0,0.,24.0,0.,24.0
1979-07-27 11:24:07.160 ,0,1,0.,24.0,0.,24.0,0.,24.0,0.,24.0
1979-07-27 11:24:31.160 ,0,0,0.,24.0,0.,24.0,0.,24.0,0.,24.0
1979-07-27 11:24:55.160 ,0,1,0.,24.0,0.,24.0,0.,24.0,0.,24.0
1979-07-27 11:25:19.160 ,0,0,0.,24.0,0.,24.0,0.,24.0,0.,24.0
1979-07-27 11:25:43.160 ,1,1,0.,24.0,0.,24.0,0.,24.0,0.,24.0
1979-07-27 11:26:07.160 ,1,0,0.,24.0,0.,24.0,0.,24.0,0.,24.0
1979-07-27 11:26:31.160 ,2,1,0.,24.0,0.,24.0,0.,24.0,0.,24.0
1979-07-27 11:26:55.160 ,2,0,0.,24.0,0.,24.0,0.,24.0,0.,24.0
1979-07-27 11:27:19.160 ,3,1,0.,24.0,0.,24.0,0.,24.0,0.,24.0
1979-07-27 11:27:43.160 ,3,0,0.,24.0,0.,24.0,0.,24.0,0.,24.0
1979-07-27 11:28:07.160 ,4,1,0.,24.0,0.,24.0,0.,24.0,0.,24.0
1979-07-27 11:28:31.160 ,4,0,0.,24.0,0.,24.0,0.,24.0,0.,24.0
1979-07-27 11:28:55.160 ,5,1,0.,24.0,0.,24.0,0.,24.0,0.,24.0
1979-07-27 11:29:19.160 ,5,0,0.,24.0,0.,24.0,0.,24.0,0.,24.0
1979-07-27 11:29:43.160 ,6,1,0.,24.0,0.,24.0,0.,24.0,0.,24.0
1979-07-27 11:30:07.160 ,6,0,0.,24.0,0.,24.0,0.,24.0,0.,24.0
1979-07-27 11:30:31.160 ,7,0,0.,24.0,0.,24.0,0.,24.0,0.,24.0
1979-07-27 11:30:55.160 ,7,0,0.,24.0,0.,24.0,0.,24.0,0.,24.0
1979-07-27 11:31:19.160 ,5,1,0.,24.0,0.,24.0,0.,24.0,0.,24.0
1979-07-27 11:31:43.160 ,1,1,0.,24.0,0.,24.0,0.,24.0,0.,24.0
1979-07-27 11:32:07.160 ,2,1,0.,24.0,0.,24.0,0.,24.0,0.,24.0
1979-07-27 11:32:31.160 ,6,1,0.,24.0,0.,24.0,0.,24.0,0.,24.0
1979-07-27 11:32:55.160 ,5,1,0.,24.0,0.,24.0,0.,24.0,0.,24.0
1979-07-27 11:33:19.160 ,1,1,0.,24.0,0.,24.0,0.,24.0,0.,24.0
1979-07-27 11:33:43.160 ,2,1,0.,24.0,0.,24.0,0.,24.0,0.,24.0
1979-07-27 11:34:07.160 ,6,1,0.,24.0,0.,24.0,0.,24.0,0.,24.0
1979-07-27 11:34:31.160 ,5,1,0.,24.0,0.,24.0,0.,24.0,0.,24.0